Date String (YYYY-MM-DD hh:mm:ss) UTC,Instrument flags,absolute air pressure of the measurement (hPa),sample flow rate (lpm),inlet stack bypass flow (lpm),air temperature of the measurement (°C),ambient temperature measured by the external sensor (°C),aerosol sample conditioner tube jacket temperature (°C),OPC LED temperature (°C),internal box temperature (°C),relative humidity of the measurement (%),span deviation,mass concentration of particles derived from Lorenz-Mie calculation of OPC scattering (μg/m³),mass concentration of particles derived from Lorenz-Mie calculation of OPC scattering (μg/m³),mass concentration of particles derived from Lorenz-Mie calculation of OPC scattering (μg/m³)
DateTimeUTC,F1_M11,P_M11,Q1_M11,Q2_M11,T1_M11,T2_M11,T3_M11,T4_M11,T5_M11,U1_M11,ZSPAN_M11,X0_M11,X2_M11,X1_M11
2024-01-19 17:00:00,SystemResetWarning,0836.2,5.00,000.00,018.7,018.0,000.0,027.1,020.0,11.3,0002.5,0015.44,0010.00,0009.12
2024-01-19 17:01:00,SystemResetWarning,0836.2,5.00,000.00,018.7,018.0,000.0,027.1,020.0,11.3,0002.7,0015.23,0010.05,0009.14
2024-01-19 17:02:00,SystemResetWarning,0836.2,5.00,000.00,018.7,018.0,000.0,027.1,020.0,11.2,0003.0,0014.90,0010.05,0009.12
2024-01-19 17:03:00,SystemResetWarning,0836.2,5.00,000.00,018.7,018.0,000.0,027.1,020.0,11.3,0002.8,0014.78,0009.99,0009.12
2024-01-19 17:04:00,SystemResetWarning,0836.2,5.00,000.00,018.7,018.0,000.0,027.1,020.0,11.4,0002.7,0015.63,0009.99,0009.13
2024-01-19 17:05:00,SystemResetWarning,0836.2,5.00,000.00,018.7,018.0,000.0,027.1,020.0,11.4,0002.6,0015.96,0010.03,0009.13
2024-01-19 17:06:00,SystemResetWarning,0836.2,5.00,000.00,018.7,018.0,000.0,027.1,020.0,11.4,0002.6,0016.00,0010.06,0009.13
2024-01-19 17:07:00,SystemResetWarning,0836.2,5.00,000.00,018.7,018.0,000.0,027.1,020.0,11.3,0002.4,0015.87,0010.07,0009.12
2024-01-19 17:08:00,SystemResetWarning,0836.2,5.00,000.00,018.7,018.0,000.0,027.1,020.0,11.2,0002.2,0015.87,0010.05,0009.12
2024-01-19 17:09:00,SystemResetWarning,0836.2,4.99,000.00,018.7,018.0,000.0,027.1,020.0,11.2,0002.4,0015.93,0010.07,0009.16
2024-01-19 17:10:00,SystemResetWarning,0836.1,5.01,000.00,018.7,018.0,000.0,027.1,020.0,11.3,0002.5,0016.97,0010.15,0009.20
2024-01-19 17:11:00,SystemResetWarning,0836.1,5.01,000.00,018.7,018.0,000.0,027.1,020.0,11.3,0002.3,0016.92,0010.15,0009.20
2024-01-19 17:12:00,SystemResetWarning,0836.1,5.00,000.00,018.7,018.0,000.0,027.1,020.0,11.4,0002.3,0017.31,0010.11,0009.18
2024-01-19 17:13:00,SystemResetWarning,0836.2,5.00,000.00,018.7,018.0,000.0,027.1,020.0,11.5,0001.8,0017.36,0010.11,0009.19
2024-01-19 17:14:00,SystemResetWarning,0836.1,5.00,000.00,018.7,018.0,000.0,027.1,020.0,11.4,0001.8,0017.30,0010.11,0009.20
2024-01-19 17:15:00,SystemResetWarning,0836.2,4.99,000.00,018.7,018.0,000.0,027.1,020.0,11.5,0001.9,0016.62,0010.11,0009.21
2024-01-19 17:16:00,SystemResetWarning,0836.1,4.99,000.00,018.7,018.0,000.0,027.1,020.0,11.5,0002.4,0016.33,0010.16,0009.26
2024-01-19 17:17:00,SystemResetWarning,0836.1,4.99,000.00,018.7,018.0,000.0,027.1,020.0,11.4,0002.5,0017.05,0010.20,0009.30
2024-01-19 17:18:00,SystemResetWarning,0836.2,5.00,000.00,018.7,018.0,000.0,027.1,020.0,11.6,0002.0,0017.44,0010.22,0009.33
2024-01-19 17:19:00,SystemResetWarning,0836.2,5.01,000.00,018.7,018.0,000.0,027.1,020.0,11.5,0002.4,0017.38,0010.22,0009.35
2024-01-19 17:20:00,SystemResetWarning,0836.2,5.00,000.00,018.7,018.0,000.0,027.1,020.0,11.5,0002.1,0017.25,0010.22,0009.36
2024-01-19 17:21:00,SystemResetWarning,0836.1,5.00,000.00,018.7,018.0,000.0,027.1,020.0,11.4,0001.7,0016.54,0010.20,0009.34
2024-01-19 17:22:00,SystemResetWarning,0836.1,5.00,000.00,018.7,018.0,000.0,027.1,020.0,11.3,0001.6,0015.76,0010.20,0009.33
2024-01-19 17:23:00,SystemResetWarning,0836.1,5.00,000.00,018.7,018.0,000.0,027.1,020.0,11.3,0001.5,0015.57,0010.20,0009.34
2024-01-19 17:24:00,SystemResetWarning,0836.1,5.00,000.00,018.7,018.0,000.0,027.1,020.0,11.4,0001.6,0015.35,0010.21,0009.36
2024-01-19 17:25:00,SystemResetWarning,0836.1,4.99,000.00,018.7,018.0,000.0,027.1,020.0,11.3,0001.3,0015.53,0010.25,0009.38
2024-01-19 17:26:00,SystemResetWarning,0836.0,5.00,000.00,018.7,018.0,000.0,027.1,020.0,11.3,0001.2,0016.50,0010.29,0009.38
2024-01-19 17:27:00,SystemResetWarning,0836.1,5.00,000.00,018.7,018.0,000.0,027.1,020.0,11.4,0001.0,0016.47,0010.31,0009.37
2024-01-19 17:28:00,SystemResetWarning,0836.1,5.01,000.00,018.7,018.0,000.0,027.1,020.0,11.3,0001.1,0017.06,0010.27,0009.35
2024-01-19 17:29:00,SystemResetWarning,0836.2,5.01,000.00,018.7,018.0,000.0,027.1,020.0,11.4,0001.4,0016.96,0010.24,0009.33
2024-01-19 17:30:00,SystemResetWarning,0836.2,5.00,000.00,018.7,018.0,000.0,027.1,020.0,11.4,0001.5,0017.08,0010.24,0009.30
2024-01-19 17:31:00,SystemResetWarning,0836.2,5.00,000.00,018.7,018.0,000.0,027.1,020.0,11.4,0001.8,0017.22,0010.21,0009.26
2024-01-19 17:32:00,SystemResetWarning,0836.2,5.00,000.00,018.7,018.0,000.0,027.1,020.0,11.5,0002.1,0017.26,0010.19,0009.24
2024-01-19 17:33:00,SystemResetWarning,0836.2,5.00,000.00,018.7,018.0,000.0,027.1,020.0,11.5,0002.4,0017.28,0010.18,0009.23
2024-01-19 17:34:00,SystemResetWarning,0836.1,5.00,000.00,018.7,018.0,000.0,027.1,020.0,11.4,0002.5,0017.14,0010.16,0009.21
2024-01-19 17:35:00,SystemResetWarning,0836.2,5.00,000.00,018.7,018.0,000.0,027.1,020.0,11.4,0002.4,0017.93,0010.10,0009.18
2024-01-19 17:36:00,SystemResetWarning,0836.2,5.00,000.00,018.7,018.0,000.0,027.1,020.0,11.4,0002.6,0018.17,0010.04,0009.16
2024-01-19 17:37:00,SystemResetWarning,0836.1,5.00,000.00,018.7,018.0,000.0,027.1,020.0,11.4,0002.6,0017.36,0010.00,0009.13
2024-01-19 17:38:00,SystemResetWarning,0836.1,5.01,000.00,018.7,018.0,000.0,027.1,020.0,11.5,0002.3,0017.95,0009.97,0009.10
2024-01-19 17:39:00,SystemResetWarning,0836.1,5.01,000.00,018.7,018.0,000.0,027.1,020.0,11.6,0002.4,0017.50,0009.96,0009.10
2024-01-19 17:40:00,SystemResetWarning,0836.1,5.00,000.00,018.7,018.0,000.0,027.1,020.0,11.6,0002.7,0017.65,0009.95,0009.10
2024-01-19 17:41:00,SystemResetWarning,0836.1,5.00,000.00,018.7,018.0,000.0,027.1,020.0,11.5,0002.6,0017.75,0009.99,0009.11
2024-01-19 17:42:00,SystemResetWarning,0836.0,4.99,000.00,018.7,018.1,000.0,027.1,020.0,11.5,0002.5,0017.97,0010.01,0009.12
2024-01-19 17:43:00,SystemResetWarning,0836.0,5.00,000.00,018.7,018.1,000.0,027.1,020.0,11.7,0002.4,0017.90,0010.00,0009.12
2024-01-19 17:44:00,SystemResetWarning,0836.0,5.00,000.00,018.7,018.1,000.0,027.1,020.0,11.6,0002.3,0017.81,0010.00,0009.11
2024-01-19 17:45:00,SystemResetWarning,0836.1,5.00,000.00,018.7,018.1,000.0,027.1,020.0,11.6,0002.6,0017.92,0009.99,0009.07
2024-01-19 17:46:00,SystemResetWarning,0836.1,5.00,000.00,018.7,018.1,000.0,027.1,020.0,11.6,0002.6,0017.21,0009.99,0009.07
2024-01-19 17:47:00,SystemResetWarning,0836.0,5.00,000.00,018.7,018.1,000.0,027.1,020.1,11.5,0002.4,0017.12,0009.99,0009.04
2024-01-19 17:48:00,SystemResetWarning,0836.1,5.01,000.00,018.8,018.1,000.0,027.1,020.1,11.5,0002.4,0017.46,0010.00,0009.03
2024-01-19 17:49:00,SystemResetWarning,0836.0,5.01,000.00,018.8,018.1,000.0,027.1,020.1,11.5,0002.8,0016.91,0010.00,0009.01
2024-01-19 17:50:00,SystemResetWarning,0835.9,4.99,000.00,018.8,018.1,000.0,027.1,020.1,11.8,0002.8,0016.72,0009.99,0008.98
2024-01-19 17:51:00,SystemResetWarning,0836.0,4.99,000.00,018.8,018.1,000.0,027.1,020.1,11.6,0002.5,0016.10,0010.01,0008.96
2024-01-19 17:52:00,SystemResetWarning,0836.0,5.00,000.00,018.8,018.1,000.0,027.1,020.1,11.6,0002.5,0015.81,0009.96,0008.93
2024-01-19 17:53:00,SystemResetWarning,0836.0,4.99,000.00,018.8,018.1,000.0,027.1,020.1,11.5,0001.9,0015.81,0009.97,0008.92
2024-01-19 17:54:00,SystemResetWarning,0836.0,4.99,000.00,018.8,018.1,000.0,027.1,020.1,11.5,0001.8,0015.92,0009.98,0008.91
2024-01-19 17:55:00,SystemResetWarning,0836.0,5.00,000.00,018.8,018.1,000.0,027.1,020.1,11.5,0001.6,0016.22,0009.98,0008.89
2024-01-19 17:56:00,SystemResetWarning,0835.9,5.01,000.00,018.8,018.1,000.0,027.1,020.1,11.5,0001.7,0016.44,0009.98,0008.90
2024-01-19 17:57:00,SystemResetWarning,0835.9,5.01,000.00,018.8,018.1,000.0,027.1,020.1,11.6,0001.7,0016.45,0009.95,0008.88
2024-01-19 17:58:00,SystemResetWarning,0835.9,5.00,000.00,018.8,018.1,000.0,027.1,020.2,11.5,0001.8,0017.01,0009.98,0008.88
2024-01-19 17:59:00,SystemResetWarning,0835.9,5.00,000.00,018.8,018.2,000.0,027.1,020.1,11.5,0001.8,0016.69,0009.94,0008.86
